Shanghai Hongqiao, China

1:23 PM CST on March 28, 2017 (GMT +0800)
Hongqiao

Weather History for ZSSS - December, 2013

Change the Weather History Date:

Thursday, December 19, 2013

  Actual Average Record
Temperature  
Mean Temperature 38 °F -  
Max Temperature 42 °F 48 °F 62 °F (1998)
Min Temperature 33 °F 34 °F 26 °F (1996)
Degree Days  
Heating Degree Days 28    
Moisture  
Dew Point 24 °F    
Average Humidity 58    
Maximum Humidity 81    
Minimum Humidity 36    
Precipitation  
Precipitation 0.00 in 0.05 in - ()
Sea Level Pressure  
Sea Level Pressure 30.39 in    
Wind  
Wind Speed 9 mph ()    
Max Wind Speed 13 mph    
Max Gust Speed -    
Visibility 3.5 miles    
Events      
Averages and records for this station are not official NWS values.
T = Trace of Precipitation, MM = Missing Value Source: Averaged Metar Reports

Daily Weather History Graph

Daily Weather History Graph

Search for Another Location

Airport or City:

Trip Planner

Search our weather history database for the weather conditions in past years. The results will help you decide how hot, cold, wet, or windy it might be!

Date:

Astronomy

Dec. 19, 2013 Rise Set
Actual Time 6:47 AM CST 4:55 PM CST
Civil Twilight 6:21 AM CST 5:22 PM CST
Nautical Twilight 5:50 AM CST 5:52 PM CST
Astronomical Twilight 5:21 AM CST 6:22 PM CST
Moon 6:43 PM CST (12/19) 7:49 AM CST (12/19)
Length of Visible Light 11h 00m
Length of Day
10h 07m
Full, 97% of the Moon is Illuminated
Dec 19
Full
Dec 25
Last Quarter
Jan 1
New
Jan 8
First Quarter
Jan 16
Full

Hourly Weather History & Observations

Time (CST) Temp. Windchill Dew Point Humidity Pressure Visibility Wind Dir Wind Speed Gust Speed Precip Events Conditions
12:00 AM 37.4 °F 29.9 °F 32.0 °F 81% 30.36 in 3.7 mi NNW 11.2 mph - N/A   Unknown
12:30 AM 37.4 °F 29.9 °F 32.0 °F 81% 30.36 in 3.7 mi NNW 11.2 mph - N/A   Unknown
1:00 AM 37.4 °F 29.9 °F 30.2 °F 75% 30.36 in 4.3 mi NNW 11.2 mph - N/A   Unknown
1:30 AM 37.4 °F 30.9 °F 30.2 °F 75% 30.36 in 5.0 mi NNW 8.9 mph - N/A   Unknown
2:00 AM 37.4 °F 29.9 °F 28.4 °F 70% 30.36 in - NNW 11.2 mph - N/A   Clear
2:30 AM 35.6 °F 28.7 °F 28.4 °F 75% 30.36 in - NNW 8.9 mph - N/A   Clear
3:00 AM 35.6 °F 28.7 °F 26.6 °F 70% 30.36 in - NNW 8.9 mph - N/A   Clear
3:30 AM 35.6 °F 30.0 °F 26.6 °F 70% 30.36 in 4.3 mi NW 6.7 mph - N/A   Unknown
4:00 AM 35.6 °F 27.7 °F 28.4 °F 75% 30.36 in 3.7 mi NW 11.2 mph - N/A   Unknown
4:30 AM 35.6 °F 27.7 °F 28.4 °F 75% 30.36 in 3.7 mi NW 11.2 mph - N/A   Unknown
5:00 AM 33.8 °F 25.4 °F 28.4 °F 81% 30.36 in 3.7 mi NW 11.2 mph - N/A   Unknown
5:30 AM 33.8 °F 26.5 °F 26.6 °F 75% 30.36 in 3.7 mi NW 8.9 mph - N/A   Unknown
6:00 AM 33.8 °F 25.4 °F 26.6 °F 75% 30.39 in 3.7 mi NW 11.2 mph - N/A   Unknown
6:30 AM 33.8 °F 25.4 °F 26.6 °F 75% 30.39 in 3.7 mi NW 11.2 mph - N/A   Unknown
7:00 AM 33.8 °F 25.4 °F 24.8 °F 70% 30.39 in 3.7 mi NNW 11.2 mph - N/A   Unknown
7:30 AM 33.8 °F 25.4 °F 26.6 °F 75% 30.39 in 3.7 mi NNW 11.2 mph - N/A   Unknown
8:00 AM 35.6 °F 27.7 °F 24.8 °F 65% 30.42 in 3.7 mi NNW 11.2 mph - N/A   Unknown
8:30 AM 35.6 °F 27.7 °F 23.0 °F 60% 30.42 in 3.7 mi NNW 11.2 mph - N/A   Unknown
9:00 AM 37.4 °F 29.9 °F 21.2 °F 52% 30.42 in 5.0 mi NNW 11.2 mph - N/A   Unknown
9:30 AM 39.2 °F 31.3 °F 19.4 °F 45% 30.45 in - NNW 13.4 mph - N/A   Clear
10:00 AM 39.2 °F 32.2 °F 21.2 °F 49% 30.42 in - NNW 11.2 mph - N/A   Clear
10:30 AM 41.0 °F 33.6 °F 21.2 °F 45% 30.42 in - North 13.4 mph - N/A   Clear
11:00 AM 41.0 °F 34.4 °F 21.2 °F 45% 30.42 in - NNW 11.2 mph - N/A   Clear
11:30 AM 41.0 °F 34.4 °F 19.4 °F 42% 30.42 in - North 11.2 mph - N/A   Clear
12:00 PM 41.0 °F 35.4 °F 19.4 °F 42% 30.42 in - NNW 8.9 mph - N/A   Clear
12:30 PM 42.8 °F 37.6 °F 17.6 °F 36% 30.39 in - North 8.9 mph - N/A   Clear
1:00 PM 42.8 °F 37.6 °F 17.6 °F 36% 30.39 in - North 8.9 mph - N/A   Clear
1:30 PM 42.8 °F 37.6 °F 19.4 °F 39% 30.36 in - North 8.9 mph - N/A   Clear
2:00 PM 42.8 °F 37.6 °F 19.4 °F 39% 30.36 in - NNW 8.9 mph - N/A   Clear
2:30 PM 42.8 °F 36.7 °F 19.4 °F 39% 30.36 in - NW 11.2 mph - N/A   Clear
3:00 PM 42.8 °F 36.7 °F 19.4 °F 39% 30.36 in - NNW 11.2 mph - N/A   Clear
3:30 PM 42.8 °F 36.7 °F 19.4 °F 39% 30.36 in - NNW 11.2 mph - N/A   Clear
4:00 PM 41.0 °F 34.4 °F 19.4 °F 42% 30.36 in 4.3 mi NNW 11.2 mph - N/A   Unknown
4:30 PM 41.0 °F 35.4 °F 19.4 °F 42% 30.39 in 4.3 mi NNW 8.9 mph - N/A   Unknown
5:00 PM 39.2 °F 33.1 °F 19.4 °F 45% 30.39 in 3.1 mi NW 8.9 mph - N/A   Haze
5:30 PM 39.2 °F 33.1 °F 21.2 °F 49% 30.39 in 3.1 mi WNW 8.9 mph - N/A   Haze
6:00 PM 39.2 °F 34.4 °F 21.2 °F 49% 30.42 in 3.1 mi NNW 6.7 mph - N/A   Haze
6:30 PM 39.2 °F 34.4 °F 21.2 °F 49% 30.39 in 3.1 mi NNW 6.7 mph - N/A   Haze
7:00 PM 37.4 °F 33.9 °F 21.2 °F 52% 30.39 in 3.1 mi NNW 4.5 mph - N/A   Haze
7:30 PM 37.4 °F 33.9 °F 21.2 °F 52% 30.39 in 3.1 mi North 4.5 mph - N/A   Haze
8:00 PM 39.2 °F 34.4 °F 21.2 °F 49% 30.42 in 3.1 mi NNW 6.7 mph - N/A   Haze
8:30 PM 37.4 °F 32.2 °F 23.0 °F 56% 30.42 in 3.1 mi NNW 6.7 mph - N/A   Haze
9:00 PM 37.4 °F 32.2 °F 23.0 °F 56% 30.42 in 3.1 mi NW 6.7 mph - N/A   Haze
9:30 PM 37.4 °F 32.2 °F 24.8 °F 60% 30.42 in 3.1 mi West 6.7 mph - N/A   Haze
10:00 PM 37.4 °F 32.2 °F 26.6 °F 65% 30.42 in 3.1 mi West 6.7 mph - N/A   Haze
10:30 PM 37.4 °F 30.9 °F 26.6 °F 65% 30.42 in 2.5 mi WNW 8.9 mph - N/A   Haze
11:00 PM 35.6 °F 30.0 °F 26.6 °F 70% 30.42 in 2.5 mi West 6.7 mph - N/A   Haze
11:30 PM 35.6 °F 30.0 °F 26.6 °F 70% 30.42 in 2.5 mi West 6.7 mph - N/A   Haze